This demonstration page uses our WeatherBlox Daily Observations layout. Learn more.

Left ArrowRight Arrow

Hourly Observations for October 7, 2015

Temp ( °F °C ) Dew Point ( °F °C ) Humidity (%) Winds ( mph kmh ) Pressure ( in mb ) Visibility ( mi km ) Precip ( " mm )
12:06 am 00:06 Partly Cloudy 59 15 58 14.4 96 96 W 9 15 29.94 1014 10 16 0.00 0.00
12:51 am 00:51 Mostly Cloudy with Light Rain 59 15 58 14.4 96 96 N 3 6 29.91 1013 10 16 0.00 0.03
1:51 am 01:51 Mostly Cloudy 59 15 58 14.4 96 96 S 5 7 29.92 1013 10 16 0.00 0.03
2:51 am 02:51 Partly Cloudy 59 15 57 13.9 93 93 Calm 29.93 1013 10 16 0.00 0.00
3:51 am 03:51 Cloudy with Light Rain 58 14.4 58 14.4 100 100 Calm 29.95 1014 9 14 0.00 0.03
4:51 am 04:51 Cloudy with Light Rain 59 15 57 13.9 93 93 NNE 7 11 29.93 1014 10 16 0.01 0.25
5:51 am 05:51 Cloudy 59 15 58 14.4 96 96 ESE 5 7 29.97 1015 10 16 0.00 0.03
6:23 am 06:23 Partly Cloudy 58 14.4 57 13.9 97 97 Calm 30.00 1016 9 14 0.00 0.00
6:46 am 06:46 Mostly Cloudy 57 14 57 14 100 100 Calm 30.03 1017 8 13 0.00 0.00
6:51 am 06:51 Mostly Cloudy 58 14.4 57 13.9 97 97 Calm 30.00 1016 9 14 0.00 0.00
7:03 am 07:03 Mostly Cloudy 59 15 57 13.9 93 93 Calm 30.00 1016 9 14 0.00 0.00
7:43 am 07:43 Cloudy 59 15 57 13.9 93 93 SSE 3 6 30.00 1016 10 16 0.00 0.00
7:51 am 07:51 Cloudy 59 15 58 14.4 96 96 Calm 30.01 1016 10 16 0.00 0.00
8:51 am 08:51 Mostly Cloudy 62 16.7 58 14.4 86 86 NW 6 9 30.02 1017 10 16 0.00 0.00
9:51 am 09:51 Mostly Cloudy 62 16.7 58 14.4 86 86 WNW 10 17 30.02 1017 10 16 0.01 0.25
10:00 am 10:00 Mostly Cloudy 62 16.7 58 14.4 86 86 WNW 10 17 30.03 1017 10 16 0.00 0.00
10:51 am 10:51 Mostly Sunny 64 17.8 57 13.9 78 78 NW 15 24 30.01 1016 10 16 0.00 0.00
11:51 am 11:51 Sunny 66 18.9 57 13.9 73 73 WNW 16 26 30.00 1016 10 16 0.00 0.00
12:51 pm 12:51 Sunny 65 18.3 51 10.6 61 61 WNW 14 22 29.96 1015 10 16 0.00 0.00
1:51 pm 13:51 Sunny 67 19.4 53 11.7 61 61 WNW 13 20 29.93 1014 10 16 0.00 0.00
2:51 pm 14:51 Partly Cloudy 68 20 53 11.7 59 59 WNW 13 20 29.92 1013 10 16 0.00 0.00
3:51 pm 15:51 Sunny 70 21.1 52 11.1 53 53 WNW 14 22 29.90 1013 10 16 0.00 0.00
4:51 pm 16:51 Sunny 69 20.6 51 10.6 53 53 WNW 14 22 29.91 1013 10 16 0.00 0.00
5:51 pm 17:51 Sunny 65 18.3 55 12.8 70 70 WNW 12 19 29.93 1014 10 16 0.00 0.00
6:51 pm 18:51 Clear 62 16.7 56 13.3 80 80 NW 8 13 29.96 1015 10 16 0.00 0.00
7:51 pm 19:51 Partly Cloudy 62 16.7 56 13.3 80 80 WNW 8 13 29.96 1014 10 16 0.00 0.00
8:51 pm 20:51 Clear 60 15.6 54 12.2 80 80 NNW 8 13 29.96 1015 10 16 0.00 0.00
9:51 pm 21:51 Clear 60 15.6 53 11.7 78 78 NNW 8 13 29.96 1015 10 16 0.00 0.00
10:51 pm 22:51 Clear 59 15 52 11.1 78 78 NW 6 9 29.97 1015 10 16 0.00 0.00
11:51 pm 23:51 Clear 57 13.9 53 11.7 87 87 Calm 29.96 1015 10 16 0.00 0.00

Powered by AerisWeather